TimeEDT,TemperatureF,Dew PointF,Humidity,Sea Level PressureIn,VisibilityMPH,Wind Direction,Wind SpeedMPH,Gust SpeedMPH,PrecipitationIn,Events,Conditions,WindDirDegrees,DateUTC
12:54 AM,71.1,60.1,68,30.06,10.0,North,4.6,-,N/A,,Clear,360,2007-06-30 04:54:00
1:54 AM,68.0,61.0,78,30.05,10.0,Calm,Calm,-,N/A,,Clear,0,2007-06-30 05:54:00
2:54 AM,66.0,61.0,84,30.04,10.0,Calm,Calm,-,N/A,,Clear,0,2007-06-30 06:54:00
3:54 AM,64.9,62.1,90,30.04,10.0,Calm,Calm,-,N/A,,Clear,0,2007-06-30 07:54:00
4:54 AM,64.0,60.1,87,30.04,10.0,Calm,Calm,-,N/A,,Clear,0,2007-06-30 08:54:00
5:54 AM,63.0,60.1,90,30.04,10.0,Calm,Calm,-,N/A,,Clear,0,2007-06-30 09:54:00
6:54 AM,64.0,60.1,87,30.04,10.0,Calm,Calm,-,N/A,,Clear,0,2007-06-30 10:54:00
7:54 AM,66.0,62.1,87,30.05,10.0,NW,3.5,-,N/A,,Clear,320,2007-06-30 11:54:00
8:54 AM,72.0,62.1,71,30.04,10.0,North,8.1,-,N/A,,Clear,350,2007-06-30 12:54:00
9:54 AM,73.9,62.1,66,30.04,10.0,NNW,8.1,-,N/A,,Clear,330,2007-06-30 13:54:00
10:54 AM,78.1,63.0,60,30.04,10.0,NW,10.4,-,N/A,,Clear,320,2007-06-30 14:54:00
11:54 AM,80.1,62.1,54,30.04,10.0,North,5.8,-,N/A,,Clear,360,2007-06-30 15:54:00
12:54 PM,82.0,63.0,52,30.03,10.0,NNW,10.4,16.1,N/A,,Partly Cloudy,340,2007-06-30 16:54:00
1:54 PM,81.0,62.1,52,30.03,10.0,NNW,10.4,-,N/A,,Clear,330,2007-06-30 17:54:00
2:54 PM,84.9,61.0,44,30.00,10.0,NW,10.4,-,N/A,,Partly Cloudy,310,2007-06-30 18:54:00
3:54 PM,82.9,61.0,47,29.98,10.0,Variable,3.5,-,N/A,,Mostly Cloudy,0,2007-06-30 19:54:00
4:54 PM,82.0,61.0,49,29.97,10.0,NNW,10.4,-,N/A,,Overcast,340,2007-06-30 20:54:00
5:54 PM,82.0,61.0,49,29.96,10.0,North,11.5,-,N/A,,Mostly Cloudy,350,2007-06-30 21:54:00
6:54 PM,82.0,61.0,49,29.96,10.0,NNW,11.5,-,N/A,,Partly Cloudy,340,2007-06-30 22:54:00
7:54 PM,81.0,61.0,50,29.96,10.0,NNW,9.2,-,N/A,,Clear,330,2007-06-30 23:54:00
8:54 PM,78.1,60.1,54,29.99,10.0,NNW,4.6,-,N/A,,Clear,330,2007-07-01 00:54:00
9:54 PM,75.0,62.1,64,30.01,10.0,NNW,4.6,-,N/A,,Mostly Cloudy,330,2007-07-01 01:54:00
10:54 PM,73.0,61.0,66,30.01,10.0,NNW,5.8,-,N/A,,Clear,330,2007-07-01 02:54:00
11:54 PM,73.0,61.0,66,30.02,10.0,Variable,3.5,-,N/A,,Clear,0,2007-07-01 03:54:00